Location: Stockholm
(59.3330°N, 18.0500°E)
Time: 10:31:36
(UTC+01:00)

FENGYUN 1C DEB - Pass Details

Date: 07 December 2023
Orbit: 841 x 915 km, 98.8° (Epoch: 21 February)

Event Time Altitude Azimuth Distance (km) Brightness Sun altitude
Exits shadow 18:58:38 18° 3° (N) 1,971 ? -29.4°
Drops below altitude 10° 19:00:13 10° 352° (N) 2,479 ? -29.6°
Sets 19:02:50 0° 342° (NNW) 3,423 ? -29.9°
